GW3607 Weather Reports


Display with metric or nautical units.
time (UTC)temp
F
wind
direction
speed
MPH
gust
MPH
rain 1hr
in
rain 24hr
in
rain mn
in
humidity
%
barometer
mb
20260504234034 52 122 9.0 17.0 0.00 0.00 0.00 82 1026.1
20260504233535 52 79 8.0 17.0 0.00 0.00 0.00 83 1026.1
20260504233049 52 70 8.0 19.0 0.00 0.00 0.00 83 1026.1
20260504232535 52 93 6.0 19.0 0.00 0.00 0.00 83 1026.1
20260504232034 52 102 8.0 15.0 0.00 0.00 0.00 83 1026.0
20260504231543 52 78 7.0 18.0 0.00 0.00 0.00 83 1025.9
20260504231034 52 64 8.0 18.0 0.00 0.00 0.00 83 1025.9
20260504230535 51 105 8.0 17.0 0.00 0.00 0.00 83 1025.7
20260504230044 51 120 8.0 17.0 0.00 0.00 0.00 83 1025.7
20260504225535 51 89 8.0 18.0 0.00 0.00 0.00 83 1025.6
20260504225034 51 109 9.0 18.0 0.00 0.00 0.00 83 1025.5
20260504224542 51 85 8.0 17.0 0.00 0.00 0.00 83 1025.3
20260504224036 51 107 8.0 18.0 0.00 0.00 0.00 83 1025.3
20260504223535 51 101 8.0 18.0 0.00 0.00 0.00 83 1025.2
20260504223043 52 95 10.0 18.0 0.00 0.00 0.00 83 1025.1
20260504222534 52 88 7.0 17.0 0.00 0.00 0.00 83 1025.2
20260504222034 52 77 9.0 16.0 0.00 0.00 0.00 83 1025.1
20260504221542 52 77 8.0 18.0 0.00 0.00 0.00 83 1025.1
20260504221034 52 104 9.0 18.0 0.00 0.00 0.00 83 1025.0
20260504220534 52 58 9.0 18.0 0.00 0.00 0.00 83 1025.0
20260504220056 52 88 9.0 18.0 0.00 0.00 0.00 83 1025.1
20260504215534 52 77 10.0 18.0 0.00 0.00 0.00 83 1025.1
20260504215037 52 96 9.0 19.0 0.00 0.00 0.00 83 1025.1
20260504214547 52 123 8.0 19.0 0.00 0.00 0.00 83 1025.0
20260504214035 52 90 9.0 20.0 0.00 0.00 0.00 83 1025.0
20260504213535 52 104 9.0 20.0 0.00 0.00 0.00 83 1025.0
20260504213101 52 47 6.0 16.0 0.00 0.00 0.00 83 1025.2
20260504212535 52 81 8.0 17.0 0.00 0.00 0.00 83 1025.0
20260504212035 52 87 7.0 17.0 0.00 0.00 0.00 83 1025.1
20260504211544 52 60 7.0 15.0 0.00 0.00 0.00 83 1025.2
20260504211034 52 88 7.0 15.0 0.00 0.00 0.00 82 1025.0
20260504210534 52 102 7.0 15.0 0.00 0.00 0.00 82 1025.2
20260504210043 53 58 7.0 15.0 0.00 0.00 0.00 82 1025.1
20260504205536 53 112 8.0 16.0 0.00 0.00 0.00 82 1025.0
20260504205034 53 129 8.0 16.0 0.00 0.00 0.00 82 1025.2
20260504204545 53 60 7.0 16.0 0.00 0.00 0.00 82 1025.1
20260504204037 52 126 8.0 15.0 0.00 0.00 0.00 82 1025.0
20260504203535 52 80 7.0 15.0 0.00 0.00 0.00 82 1025.1
20260504203047 52 121 7.0 18.0 0.00 0.00 0.00 82 1025.0
20260504202535 52 121 7.0 18.0 0.00 0.00 0.00 82 1025.0
20260504202035 52 69 6.0 14.0 0.00 0.00 0.00 82 1025.0
20260504201544 53 111 7.0 15.0 0.00 0.00 0.00 82 1025.0
20260504201035 53 72 7.0 19.0 0.00 0.00 0.00 82 1025.0
20260504200535 53 104 7.0 19.0 0.00 0.00 0.00 82 1025.0
20260504200053 52 77 5.0 13.0 0.00 0.00 0.00 82 1025.0
20260504195535 52 133 6.0 14.0 0.00 0.00 0.00 82 1025.0
20260504195034 52 99 5.0 14.0 0.00 0.00 0.00 82 1025.0
20260504194556 52 56 6.0 14.0 0.00 0.00 0.00 82 1024.8
20260504194035 53 100 6.0 16.0 0.00 0.00 0.00 82 1025.0
20260504193535 53 96 7.0 16.0 0.00 0.00 0.00 81 1025.0
20260504193103 53 89 8.0 17.0 0.00 0.00 0.00 82 1024.9
20260504192534 53 101 8.0 17.0 0.00 0.00 0.00 81 1024.9
20260504192038 53 112 6.0 16.0 0.00 0.00 0.00 81 1024.8
20260504191549 53 108 6.0 16.0 0.00 0.00 0.00 81 1024.7
20260504191035 53 122 9.0 18.0 0.00 0.00 0.00 81 1024.7
20260504190534 53 109 8.0 18.0 0.00 0.00 0.00 81 1024.8
20260504190049 53 80 7.0 16.0 0.00 0.00 0.00 81 1024.9
20260504185541 53 89 7.0 16.0 0.00 0.00 0.00 81 1024.8
20260504185036 53 103 7.0 16.0 0.00 0.00 0.00 81 1024.9
20260504184551 53 110 7.0 16.0 0.00 0.00 0.00 80 1025.0
20260504184037 54 100 7.0 16.0 0.00 0.00 0.00 80 1025.1
20260504183539 54 89 8.0 17.0 0.00 0.00 0.00 80 1025.0
20260504183057 54 93 8.0 19.0 0.00 0.00 0.00 80 1025.0
20260504182536 54 75 8.0 19.0 0.00 0.00 0.00 80 1025.0
20260504182036 54 120 6.0 15.0 0.00 0.00 0.00 80 1025.0
20260504181551 54 108 7.0 15.0 0.00 0.00 0.00 80 1025.2
20260504181036 54 112 6.0 14.0 0.00 0.00 0.00 80 1025.1
20260504180536 54 145 7.0 17.0 0.00 0.00 0.00 80 1025.2
20260504180130 54 175 7.0 17.0 0.00 0.00 0.00 80 1025.1
20260504175539 54 114 6.0 15.0 0.00 0.00 0.00 80 1025.0
20260504175036 54 102 7.0 14.0 0.00 0.00 0.00 80 1025.1
20260504174550 54 118 7.0 16.0 0.00 0.00 0.00 80 1025.2
20260504174036 54 118 7.0 16.0 0.00 0.00 0.00 80 1025.2
20260504173537 54 92 7.0 17.0 0.00 0.00 0.00 80 1025.2
20260504173050 54 79 7.0 17.0 0.00 0.00 0.00 80 1025.2
20260504172536 54 120 6.0 15.0 0.00 0.00 0.00 80 1025.2
20260504172038 54 129 6.0 15.0 0.00 0.00 0.00 80 1025.2
20260504171552 54 105 6.0 15.0 0.00 0.00 0.00 80 1025.3
20260504171036 54 88 6.0 15.0 0.00 0.00 0.00 79 1025.3
20260504170537 54 87 7.0 15.0 0.00 0.00 0.00 79 1025.3
20260504151036 55 88 4.0 11.0 0.00 0.00 0.00 77 1026.0
20260504150539 55 106 4.0 10.0 0.00 0.00 0.00 76 1026.0
20260504141036 56 137 3.0 11.0 0.00 0.00 0.00 75 1026.0
20260504140536 56 66 3.0 11.0 0.00 0.00 0.00 75 1026.0
20260504130537 58 95 2.0 11.0 0.00 0.00 0.00 73 1026.0
20260504110536 60 129 1.0 5.0 0.00 0.00 0.00 72 1026.2
20260504100536 60 0 0.0 1.0 0.00 0.00 0.00 72 1025.5
20260504100114 61 145 0.0 1.0 0.00 0.00 0.00 72 1025.4
20260504081538 69 206 0.0 4.0 0.00 0.00 0.00 59 1025.2
20260504081035 69 89 0.0 3.0 0.00 0.00 0.00 57 1025.2
20260504080535 70 0 0.0 3.0 0.00 0.00 0.00 58 1025.3
20260504050536 68 0 0.0 3.0 0.00 0.00 0.00 61 1026.0
20260504045535 67 0 1.0 4.0 0.00 0.00 0.00 64 1026.3
20260504045035 66 0 0.0 4.0 0.00 0.00 0.00 63 1026.4
20260504044542 68 202 1.0 7.0 0.00 0.00 0.00 61 1026.3
20260504044038 67 0 1.0 8.0 0.00 0.00 0.00 61 1026.4
20260504043536 66 77 3.0 8.0 0.00 0.00 0.00 61 1026.4
20260504043052 66 0 0.0 7.0 0.00 0.00 0.00 61 1026.5
20260504042535 66 105 2.0 7.0 0.00 0.00 0.00 62 1026.6
20260504042035 67 354 1.0 7.0 0.00 0.00 0.00 61 1026.7
20260504041541 65 335 1.0 7.0 0.00 0.00 0.00 62 1026.8
20260504041035 66 85 2.0 7.0 0.00 0.00 0.00 60 1026.9
20260504040535 67 0 2.0 7.0 0.00 0.00 0.00 62 1027.1
20260504040041 67 360 1.0 7.0 0.00 0.00 0.00 64 1027.1
20260504035536 66 278 2.0 7.0 0.00 0.00 0.00 62 1027.3
20260504035039 66 339 2.0 7.0 0.00 0.00 0.00 64 1027.2
20260504034552 65 68 2.0 7.0 0.00 0.00 0.00 64 1027.3
20260504034036 64 349 0.0 9.0 0.00 0.00 0.00 65 1027.3
20260504033536 65 75 3.0 9.0 0.00 0.00 0.00 63 1027.4
20260504033043 65 16 2.0 7.0 0.00 0.00 0.00 65 1027.6
20260504032536 64 118 2.0 9.0 0.00 0.00 0.00 65 1027.6
20260504032040 65 317 2.0 9.0 0.00 0.00 0.00 66 1027.5
20260504031540 64 152 3.0 9.0 0.00 0.00 0.00 67 1027.6
20260504031035 65 70 1.0 9.0 0.00 0.00 0.00 67 1027.7
20260504030535 64 10 2.0 9.0 0.00 0.00 0.00 67 1027.7
20260504030050 64 25 2.0 10.0 0.00 0.00 0.00 70 1027.6
20260504025536 64 353 1.0 10.0 0.00 0.00 0.00 69 1027.7
20260504025036 63 101 2.0 8.0 0.00 0.00 0.00 70 1027.8
20260504024544 63 40 2.0 8.0 0.00 0.00 0.00 69 1027.8
20260504024036 63 68 3.0 10.0 0.00 0.00 0.00 72 1027.8
20260504023535 62 112 1.0 10.0 0.00 0.00 0.00 72 1027.9
20260504023035 62 65 4.0 10.0 0.00 0.00 0.00 70 1027.8
20260504022536 62 64 4.0 11.0 0.00 0.00 0.00 71 1027.7
20260504022035 61 84 4.0 11.0 0.00 0.00 0.00 72 1027.9
20260504021545 61 69 3.0 12.0 0.00 0.00 0.00 71 1027.7
20260504021035 60 79 5.0 13.0 0.00 0.00 0.00 74 1027.8
20260504020535 60 76 4.0 13.0 0.00 0.00 0.00 75 1027.7
20260504020053 59 67 5.0 15.0 0.00 0.00 0.00 75 1027.8
20260504015536 59 51 8.0 15.0 0.00 0.00 0.00 75 1027.8
20260504015036 59 85 6.0 15.0 0.00 0.00 0.00 75 1027.8
20260504014548 59 180 4.0 15.0 0.00 0.00 0.00 76 1027.8
20260504014035 58 77 6.0 16.0 0.00 0.00 0.00 77 1027.7
20260504013536 58 180 6.0 16.0 0.00 0.00 0.00 77 1027.7
20260504013038 58 75 8.0 14.0 0.00 0.00 0.00 77 1027.7
20260504012535 58 114 8.0 14.0 0.00 0.00 0.00 77 1027.6
20260504012037 57 180 7.0 14.0 0.00 0.00 0.00 78 1027.8
20260504011547 57 70 6.0 13.0 0.00 0.00 0.00 78 1027.6
20260504011035 57 72 6.0 16.0 0.00 0.00 0.00 79 1027.6
20260504010535 57 98 7.0 16.0 0.00 0.00 0.00 79 1027.7
20260504010044 56 72 7.0 16.0 0.00 0.00 0.00 80 1027.6
20260504005536 56 70 6.0 17.0 0.00 0.00 0.00 80 1027.6
20260504005036 56 92 6.0 17.0 0.00 0.00 0.00 81 1027.6
20260504004543 56 89 7.0 16.0 0.00 0.00 0.00 81 1027.6
20260504004036 55 85 7.0 17.0 0.00 0.00 0.00 82 1027.7
20260504003535 55 79 10.0 17.0 0.00 0.00 0.00 82 1027.5
20260504003038 55 73 7.0 17.0 0.00 0.00 0.00 83 1027.6
20260504002535 54 93 7.0 17.0 0.00 0.00 0.00 83 1027.6
20260504002035 54 63 6.0 19.0 0.00 0.00 0.00 84 1027.6
20260504001539 53 133 8.0 19.0 0.00 0.00 0.00 85 1027.6
20260504001035 53 88 6.0 15.0 0.00 0.00 0.00 85 1027.4
20260504000537 53 70 6.0 16.0 0.00 0.00 0.00 85 1027.4
20260504000045 52 138 8.0 17.0 0.00 0.00 0.00 85 1027.5
20260503235535 52 70 7.0 17.0 0.00 0.00 0.00 85 1027.3
20260503235035 52 126 7.0 18.0 0.00 0.00 0.00 86 1027.3
20260503234542 52 52 8.0 19.0 0.00 0.00 0.00 86 1027.2